[[{"header":{"parameterUnit":"m.s-1","parameterCategory":1,"la1":30.2991,"la2":30.254,"lo1":-89.0895,"lo2":-89.0444,"dy":0.0017,"dx":0.0017,"nx":28,"ny":28,"refTime":"2024-12-05T03:00:00:Z","depth":0,"parameterNumber":2,"parameterNumberName":"U-component_of_WINDS"},"data":[0,0,0,0,0,0,0,0,0,0,0,0,0,0,0,0,0,0,0,0,0,0,0,0,0,0,0,0,0,0,0,0,0,0,0,0,0,0,0,0,0,0,0,0,0,0,0,0,0,0,0,0,0,0,0,0,0,0,-0.3639,-0.3639,0,-0.3618,-0.3618,-0.3618,-0.3614,-0.3614,-0.3614,-0.3614,-0.3594,-0.3594,-0.3593,0,0,0,0,0,0,0,0,0,0,0,0,0,-0.3678,-0.3677,-0.3639,-0.3639,-0.3639,-0.3618,-0.3618,-0.3617,-0.3614,-0.3614,-0.3614,-0.3614,-0.3594,-0.3594,-0.3593,0,0,0,0,0,0,0,0,0,0,0,0,0,-0.366,-0.3677,-0.3639,-0.3634,-0.3634,-0.3618,-0.3618,-0.3617,-0.3614,-0.3614,-0.3614,-0.3614,-0.3595,-0.3594,-0.3593,-0.3581,0,0,-0.359,-0.3589,0,0,0,0,0,0,0,0,-0.3661,-0.3658,-0.3635,-0.3635,-0.3634,-0.3619,-0.3624,-0.3605,-0.3614,-0.3621,-0.3614,-0.3615,-0.3602,-0.3601,-0.3596,-0.358,-0.3579,-0.3589,-0.3589,-0.3588,-0.3588,0,0,0,0,0,0,0,-0.3662,-0.3659,-0.3631,-0.3635,-0.3634,-0.3634,-0.3631,-0.3621,-0.3611,-0.3621,-0.362,-0.3618,-0.3602,-0.3597,-0.3596,-0.3579,-0.3589,-0.3589,-0.3588,-0.3588,-0.3553,-0.3553,0,0,0,0,0,0,-0.3664,-0.366,-0.3632,-0.363,-0.3648,-0.3633,-0.363,-0.3623,-0.3611,-0.3609,-0.3618,-0.3618,-0.3599,-0.3597,-0.3595,-0.3581,-0.3588,-0.3587,-0.3587,-0.3553,-0.3553,-0.3553,0,0,0,0,0,0,-0.3665,-0.3661,-0.3632,-0.3645,-0.3641,-0.3632,-0.3624,-0.3623,-0.3618,-0.3608,-0.3607,-0.3614,-0.3599,-0.3596,-0.3585,-0.358,-0.3587,-0.3586,-0.3554,-0.3553,-0.3553,-0.3552,0,0,0,0,0,0,-0.3666,-0.3662,-0.3657,-0.3645,-0.3641,-0.3622,-0.3624,-0.3622,-0.3616,-0.3616,-0.3605,-0.3603,-0.3599,-0.3586,-0.3584,-0.3579,-0.3585,-0.3554,-0.3554,-0.3553,-0.3552,-0.3552,-0.3551,0,0,0,0,0,-0.3667,-0.3658,-0.3656,-0.3653,-0.3634,-0.3621,-0.3619,-0.3614,-0.3616,-0.3611,-0.3605,-0.3604,-0.3581,-0.3585,-0.3582,-0.3577,-0.3554,-0.3554,-0.3553,-0.3553,-0.3552,-0.3551,0,0,0,0,0,0,-0.3669,-0.3656,-0.3654,-0.3641,-0.3632,-0.3621,-0.3615,-0.3613,-0.3604,-0.3604,-0.3599,-0.3596,-0.3585,-0.358,-0.3584,-0.3565,-0.3568,-0.3567,-0.3569,-0.3568,-0.3567,-0.3568,-0.3584,0,0,0,0,0,-0.3668,-0.3658,-0.3647,-0.3636,-0.3632,-0.3624,-0.3618,-0.3615,-0.3606,-0.3603,-0.3596,-0.3588,-0.3579,-0.3573,-0.3564,-0.3552,-0.355,-0.3547,-0.3546,-0.3546,-0.3544,-0.3538,-0.3536,-0.3551,-0.3551,-0.3551,0,0,-0.3666,-0.3657,-0.3651,-0.3637,-0.363,-0.362,-0.3621,-0.3611,-0.3604,-0.3601,-0.359,-0.3584,-0.3575,-0.3563,-0.3557,-0.3558,-0.354,-0.3545,-0.3544,-0.3543,-0.3537,-0.3536,-0.3534,-0.355,-0.355,-0.355,0,0,-0.3656,-0.3649,-0.3639,-0.3632,-0.3621,-0.3616,-0.3613,-0.3602,-0.3599,-0.3587,-0.3584,-0.3577,-0.3561,-0.3555,-0.3549,-0.3538,-0.3537,-0.3536,-0.3532,-0.3525,-0.3524,-0.3523,-0.3519,-0.3518,-0.3535,-0.3535,-0.3535,0,-0.3655,-0.364,-0.3634,-0.3624,-0.3618,-0.3614,-0.3604,-0.3598,-0.3585,-0.3581,-0.3583,-0.3563,-0.3557,-0.3543,-0.3541,-0.3537,-0.3534,-0.3537,-0.3525,-0.3523,-0.3522,-0.3519,-0.3517,-0.3535,-0.3535,-0.3535,-0.3535,0,-0.3638,-0.3628,-0.3621,-0.3609,-0.3602,-0.3592,-0.3585,-0.3579,-0.3576,-0.3571,-0.3559,-0.3552,-0.3541,-0.3538,-0.3535,-0.3524,-0.3525,-0.3526,-0.3528,-0.3521,-0.3517,-0.3516,-0.3534,-0.3534,-0.3534,-0.3534,0,0,-0.3629,-0.3613,-0.3611,-0.3605,-0.3593,-0.3586,-0.3576,-0.3566,-0.356,-0.3552,-0.3544,-0.3531,-0.3532,-0.3526,-0.3523,-0.3517,-0.3509,-0.3518,-0.3518,-0.3517,-0.3496,-0.3495,-0.3494,-0.3508,-0.3508,-0.3508,-0.3497,0,-0.3618,-0.36,-0.3595,-0.358,-0.357,-0.3567,-0.3559,-0.3551,-0.3546,-0.3538,-0.3533,-0.3524,-0.3526,-0.3522,-0.3516,-0.3511,-0.3504,-0.3512,-0.3501,-0.3501,-0.3503,-0.3492,-0.3491,-0.3481,-0.3495,-0.3495,-0.3495,0,-0.3603,-0.3594,-0.3577,-0.3567,-0.3563,-0.3555,-0.3545,-0.3538,-0.3529,-0.3526,-0.3519,-0.3517,-0.3507,-0.3511,-0.3498,-0.3503,-0.3498,-0.3495,-0.3495,-0.3493,-0.3497,-0.349,-0.3478,-0.3476,-0.3492,-0.3493,-0.3493,0,-0.3598,-0.3581,-0.357,-0.3565,-0.3552,-0.3547,-0.3542,-0.3533,-0.3528,-0.3519,-0.3515,-0.3506,-0.3501,-0.3495,-0.349,-0.3493,-0.3477,-0.348,-0.3475,-0.3475,-0.3471,-0.3472,-0.3458,-0.3469,-0.3469,-0.3469,-0.3469,0,-0.3586,-0.3576,-0.3567,-0.356,-0.3549,-0.3543,-0.3533,-0.3528,-0.352,-0.3512,-0.351,-0.3503,-0.3497,-0.3489,-0.3486,-0.3476,-0.3473,-0.3471,-0.347,-0.3471,-0.3471,-0.3468,-0.3468,-0.3469,-0.3469,-0.3469,-0.3469,0,-0.3578,-0.3572,-0.3558,-0.3548,-0.3545,-0.3537,-0.3529,-0.3522,-0.3517,-0.3507,-0.3505,-0.3497,-0.3488,-0.3483,-0.3471,-0.3469,-0.3458,-0.3457,-0.346,-0.346,-0.3455,-0.3455,-0.3438,-0.3436,-0.3448,-0.3448,-0.3448,0,-0.3571,-0.3563,-0.3552,-0.3546,-0.354,-0.3531,-0.3525,-0.3519,-0.3513,-0.3503,-0.3498,-0.3488,-0.348,-0.3466,-0.346,-0.3451,-0.3451,-0.3445,-0.3449,-0.345,-0.345,-0.3451,-0.345,-0.3444,-0.3444,-0.3444,-0.3444,0,-0.3559,-0.3556,-0.3547,-0.3536,-0.3529,-0.3521,-0.3513,-0.3509,-0.3502,-0.3495,-0.3486,-0.3479,-0.3468,-0.3458,-0.3449,-0.3445,-0.3443,-0.3443,-0.3441,-0.3442,-0.3444,-0.3443,-0.3458,-0.3443,-0.3443,-0.3443,-0.3444,-0.3444,-0.3551,-0.3544,-0.3535,-0.3525,-0.3518,-0.3511,-0.3504,-0.3498,-0.3489,-0.3479,-0.3477,-0.3466,-0.3459,-0.3446,-0.3441,-0.3434,-0.3435,-0.3432,-0.3431,-0.3431,-0.3431,-0.3445,-0.3432,-0.3432,-0.3432,-0.3432,-0.3432,0,-0.3538,-0.3532,-0.3523,-0.3512,-0.3504,-0.3503,-0.3494,-0.3488,-0.3479,-0.3472,-0.3464,-0.3453,-0.3444,-0.3438,-0.3429,-0.3424,-0.3423,-0.3422,-0.3422,-0.3421,-0.343,-0.3433,-0.3422,-0.3422,-0.3422,-0.3422,-0.3422,-0.3422,-0.3531,-0.3519,-0.3515,-0.35,-0.3495,-0.3484,-0.3479,-0.3473,-0.3467,-0.3454,-0.3447,-0.3442,-0.3435,-0.3426,-0.3418,-0.3416,-0.3413,-0.3412,-0.341,-0.3419,-0.342,-0.3421,-0.3423,-0.3411,-0.3411,-0.3401,-0.3401,-0.3401]},{"header":{"parameterUnit":"m.s-1","parameterCategory":1,"la1":30.2991,"la2":30.254,"lo1":-89.0895,"lo2":-89.0444,"dy":0.0017,"dx":0.0017,"nx":28,"ny":28,"refTime":"2024-12-05T03:00:00:Z","depth":0,"parameterNumber":3,"parameterNumberName":"V-component_of_WINDS"},"data":[0,0,0,0,0,0,0,0,0,0,0,0,0,0,0,0,0,0,0,0,0,0,0,0,0,0,0,0,0,0,0,0,0,0,0,0,0,0,0,0,0,0,0,0,0,0,0,0,0,0,0,0,0,0,0,0,0,0,3.1345,3.1346,0,3.139,3.139,3.1391,3.1306,3.1303,3.1301,3.1298,3.1342,3.1345,3.1349,0,0,0,0,0,0,0,0,0,0,0,0,0,3.1186,3.1189,3.1345,3.1346,3.1346,3.139,3.139,3.1391,3.1307,3.1303,3.13,3.1297,3.1341,3.1345,3.135,0,0,0,0,0,0,0,0,0,0,0,0,0,3.1245,3.1191,3.1345,3.1309,3.1307,3.1389,3.139,3.1391,3.1307,3.1303,3.1299,3.1295,3.1339,3.1345,3.135,3.1469,0,0,3.1367,3.137,0,0,0,0,0,0,0,0,3.1242,3.1251,3.1314,3.1312,3.1309,3.1338,3.135,3.1417,3.1308,3.1307,3.1298,3.1293,3.1344,3.1349,3.1366,3.1471,3.1473,3.1368,3.1371,3.1374,3.1375,0,0,0,0,0,0,0,3.1238,3.1249,3.1363,3.1315,3.1312,3.1291,3.1295,3.1362,3.1348,3.1307,3.1301,3.1307,3.1342,3.1361,3.1367,3.1473,3.1368,3.1373,3.1376,3.1378,3.1678,3.1683,0,0,0,0,0,0,3.1239,3.1246,3.1361,3.1364,3.1265,3.1297,3.1301,3.1333,3.1347,3.1346,3.1311,3.1303,3.1353,3.136,3.1368,3.1508,3.1374,3.1379,3.1382,3.1674,3.1679,3.1684,0,0,0,0,0,0,3.1236,3.125,3.1359,3.1303,3.1316,3.1304,3.1341,3.1336,3.1355,3.135,3.1347,3.1333,3.135,3.136,3.1445,3.1509,3.1382,3.1387,3.1668,3.1675,3.1682,3.179,0,0,0,0,0,0,3.1231,3.1249,3.1294,3.1305,3.1319,3.1436,3.1344,3.134,3.1366,3.1356,3.1371,3.1369,3.1348,3.1437,3.145,3.1514,3.1391,3.1662,3.1671,3.168,3.1781,3.18,3.1816,0,0,0,0,0,3.1226,3.1323,3.1297,3.1311,3.1376,3.144,3.1448,3.1422,3.1371,3.1416,3.1413,3.1369,3.15,3.1446,3.1461,3.1527,3.1658,3.1669,3.1679,3.1773,3.1796,3.1816,0,0,0,0,0,0,3.1319,3.1323,3.1295,3.1398,3.1419,3.1426,3.1482,3.1447,3.1483,3.1472,3.1438,3.1442,3.1534,3.1539,3.1479,3.1643,3.157,3.1584,3.1637,3.1659,3.1676,3.1673,3.1396,0,0,0,0,0,3.1351,3.1404,3.1405,3.1495,3.1508,3.1493,3.152,3.1499,3.1519,3.1527,3.153,3.1552,3.1597,3.1628,3.167,3.1781,3.1783,3.1834,3.1852,3.1866,3.1878,3.1938,3.1961,3.1718,3.1718,3.1718,0,0,3.1419,3.1428,3.1463,3.1514,3.1528,3.1583,3.1501,3.1562,3.1603,3.1536,3.1617,3.162,3.1641,3.174,3.1784,3.1747,3.1946,3.1879,3.1891,3.1895,3.1951,3.1974,3.1995,3.1725,3.1724,3.1723,0,0,3.157,3.1582,3.166,3.1676,3.1698,3.1688,3.1707,3.1719,3.1718,3.1799,3.175,3.1797,3.1877,3.1894,3.1914,3.2073,3.2033,3.2087,3.218,3.2238,3.2258,3.2274,3.2332,3.2353,3.21,3.21,3.21,0,3.1651,3.1732,3.1703,3.1769,3.1793,3.1736,3.1814,3.1831,3.1866,3.1884,3.1842,3.1942,3.1952,3.2054,3.2093,3.211,3.2131,3.2085,3.2257,3.2274,3.2289,3.2343,3.2365,3.2106,3.2106,3.2105,3.2104,0,3.1831,3.1888,3.1948,3.1984,3.2015,3.2086,3.2068,3.2103,3.2079,3.2073,3.2156,3.2166,3.221,3.2232,3.2209,3.2332,3.2308,3.2263,3.2189,3.2319,3.237,3.239,3.2116,3.2113,3.2111,3.211,0,0,3.2042,3.2062,3.2084,3.21,3.2121,3.2165,3.2234,3.2277,3.2307,3.2333,3.239,3.246,3.2418,3.244,3.2418,3.247,3.2596,3.2418,3.2417,3.2451,3.2733,3.2767,3.2792,3.257,3.2574,3.2577,3.2731,0,3.2192,3.2311,3.2288,3.2404,3.2457,3.2404,3.2464,3.2484,3.248,3.2524,3.252,3.257,3.2511,3.2524,3.2573,3.257,3.2652,3.2559,3.2622,3.2625,3.2619,3.2818,3.2855,3.3,3.275,3.2754,3.2756,0,3.2384,3.2418,3.2541,3.2554,3.2575,3.263,3.2668,3.271,3.2731,3.2725,3.2751,3.2719,3.2788,3.2713,3.2807,3.2744,3.2769,3.2772,3.2776,3.2782,3.2699,3.2829,3.3045,3.3068,3.2787,3.2784,3.2782,0,3.2526,3.2603,3.2686,3.2701,3.2719,3.2759,3.2768,3.2785,3.2812,3.2845,3.2863,3.2904,3.2926,3.2958,3.2938,3.2886,3.3036,3.2959,3.3033,3.3034,3.3067,3.3065,3.3291,3.3083,3.3082,3.3082,3.3081,0,3.2697,3.2774,3.275,3.2802,3.2886,3.2858,3.2943,3.2945,3.2961,3.3012,3.2968,3.3017,3.2988,3.3034,3.3019,3.3099,3.311,3.3107,3.3102,3.3111,3.3112,3.3127,3.3117,3.3087,3.3086,3.3085,3.3084,0,3.287,3.2857,3.2945,3.2955,3.2959,3.3021,3.3029,3.3077,3.3071,3.3136,3.3149,3.314,3.3192,3.3175,3.3231,3.3221,3.3324,3.3305,3.3317,3.3313,3.3388,3.3381,3.3631,3.3663,3.3434,3.3436,3.3438,0,3.298,3.3038,3.3055,3.3086,3.3099,3.315,3.3178,3.3153,3.3184,3.3213,3.3258,3.3306,3.3344,3.343,3.3427,3.347,3.3453,3.3538,3.3459,3.3467,3.3455,3.3453,3.3459,3.3554,3.3556,3.3559,3.356,0,3.3177,3.3168,3.3211,3.3253,3.3288,3.332,3.3347,3.3375,3.3351,3.3389,3.3442,3.3471,3.3529,3.3578,3.3617,3.3626,3.359,3.3585,3.3605,3.3615,3.362,3.3619,3.3361,3.358,3.3578,3.3576,3.3575,3.3574,3.3323,3.3372,3.3392,3.3442,3.346,3.3486,3.3532,3.3532,3.3576,3.3622,3.3604,3.3666,3.3686,3.3735,3.3749,3.3797,3.3764,3.3792,3.3799,3.3807,3.3817,3.3612,3.3803,3.3803,3.3802,3.3802,3.3801,0,3.3518,3.3529,3.3575,3.3615,3.3654,3.3617,3.3645,3.368,3.3736,3.3758,3.3796,3.3858,3.3905,3.3907,3.3951,3.3989,3.3974,3.4002,3.3999,3.4002,3.3843,3.3822,3.4014,3.4014,3.4014,3.4014,3.4014,3.4014,3.3625,3.3707,3.3701,3.3792,3.3801,3.3862,3.3882,3.3906,3.3924,3.3995,3.4035,3.4036,3.405,3.4095,3.4137,3.4136,3.4155,3.419,3.4183,3.4034,3.4013,3.3993,3.3973,3.4194,3.4194,3.4338,3.4339,3.4341]}]]